Zurück zum Katalog

STARLINK-4588

AktivKommunikationVLEO
NORAD 53641·PAYLOAD·🇺🇸 United States

Gestartet Aug 28, 2022 von Cape Canaveral Space Force Station

Loading…

Nächste Überflüge (nächste 24 Stunden)

TLE

AktuellSource: CelesTrak SupGP

Epoche: Sep 15, 2026, 01:16 UTC

1 53641C 22104BF  26258.05326389  .00009448  00000+0  30380-3 0  2586
2 53641  53.1569  83.1936 0001400  87.1133  84.9491 15.31699683    15

Verfolge STARLINK-4588 in Echtzeit mit AllMySat

Download on the App Store